Starlink 5160

operational
NORAD ID: 54080 Int'l Des: 2022-136 Owner: SPXS Country: US Constellation: starlink
LEOCIRCULAR

About Starlink 5160

Description loading...

Live Position

Loading 3D Globe...

Upcoming Passes

Altitude History

Altitude vs Time

uPlot chart will show altitude changes over time

Two-Line Element Set

1 54080U 22136AF 25338.51482450 .00003172 00000-0 21716-3 0 9994
2 54080 53.2185 46.5423 0001202 89.6081 270.5049 15.08859926172543
Epoch: Dec 4, 2025 • Age: 18 hours

Current Status

Altitude 539.9 km
Velocity 7.59 km/s
Sub-Earth Point 5.23°N, 45.79°E
Launch Date Oct 20, 2022
Age 3.1 years
Type internet

Technical Details

Classification Payload
Mass 305.00 kg
Dry Mass 290.00 kg
Total Mass 305.00 kg
Length 0.20 m
Diameter 2.80 m
Span 9.00 m
Shape Box + pan
Manufacturer SPXS
Bus Type Starlink
Phase Status In Orbit
Owner/State SPXS/US

Large Constellations

Loading constellations...